Location: Chapel Hill
(35.9134°N, 79.0560°W)
Time: 01:46:57
(UTC-04:00)

ACS3 Solar Sail - Pass Details

Date: 26 June 2024
Orbit: 921 x 1018 km, 97.5° (Epoch: 18 June)

Event Time Altitude Azimuth Distance (km) Brightness Sun altitude
Exits shadow 23:02:32 34° 190° (S) 1,483 2.4 -22.5°
Maximum altitude 23:05:06 65° 260° (W) 1,036 2.0 -22.8°
Drops below altitude 10° 23:11:08 10° 342° (NNW) 2,718 5.2 -23.5°
Sets 23:13:41 0° 346° (NNW) 3,690 6.1 -23.7°
